,,Stat6,,Stat2,,Stat8,,Stat9,,Stat10,,Wind1,,Wind1,
time,status,PA1M_AVG,status,PR1M_SUM,status,RH1M_AVG,status,SR1M_AVG,status,TA1M_AVG,status,W1dAve1m,status,W1sAve1m,
2004-02-25, 00:00:01,VALID,919.585,VALID,0,VALID,100,VALID,-0.0339617,VALID,19.9489,VALID,198,VALID,0.381324,
2004-02-25, 00:01:01,VALID,919.586,VALID,0,VALID,100,VALID,-0.0169808,VALID,19.9362,VALID,223,VALID,0.412791,
2004-02-25, 00:02:01,VALID,919.579,VALID,0,VALID,100,VALID,-0.0509425,VALID,19.9293,VALID,224,VALID,0.126674,
2004-02-25, 00:03:01,VALID,919.573,VALID,0,VALID,100,VALID,-0.0339617,VALID,19.9422,VALID,224,VALID,0,
2004-02-25, 00:04:01,VALID,919.572,VALID,0,VALID,100,VALID,-0.0339617,VALID,19.9588,VALID,224,VALID,0,
2004-02-25, 00:05:01,VALID,919.572,VALID,0,VALID,100,VALID,-0.101885,VALID,19.972,VALID,224,VALID,0,
2004-02-25, 00:06:01,VALID,919.552,VALID,0,VALID,100,VALID,-0.0679233,VALID,19.9653,VALID,224,VALID,0,
2004-02-25, 00:07:01,VALID,919.544,VALID,0,VALID,100,VALID,-0.0339617,VALID,19.9658,VALID,224,VALID,0.0802557,
2004-02-25, 00:08:01,VALID,919.533,VALID,0,VALID,100,VALID,-0.0339617,VALID,19.9489,VALID,202,VALID,0.338742,
2004-02-25, 00:09:01,VALID,919.503,VALID,0,VALID,100,VALID,-0.0849042,VALID,19.933,VALID,185,VALID,0.235828,
2004-02-25, 00:10:01,VALID,919.471,VALID,0,VALID,100,VALID,-0.101885,VALID,19.9196,VALID,185,VALID,0.355556,
2004-02-25, 00:11:01,VALID,919.435,VALID,0,VALID,100,VALID,-0.101885,VALID,19.9136,VALID,180,VALID,0.355841,
2004-02-25, 00:12:00,VALID,919.402,VALID,0,VALID,100,VALID,-0.0679233,VALID,19.9037,VALID,175,VALID,0.0253906,
2004-02-25, 00:13:00,VALID,919.377,VALID,0,VALID,100,VALID,-0.0509425,VALID,19.8843,VALID,170,VALID,0.247852,
2004-02-25, 00:14:00,VALID,919.369,VALID,0,VALID,100,VALID,-0.0849042,VALID,19.8684,VALID,142,VALID,0.745075,
2004-02-25, 00:15:00,VALID,919.358,VALID,0,VALID,100,VALID,0.0169808,VALID,19.8637,VALID,138,VALID,0.764205,
2004-02-25, 00:16:00,VALID,919.366,VALID,0,VALID,100,VALID,0.0169808,VALID,19.8475,VALID,132,VALID,0.926962,
2004-02-25, 00:17:00,VALID,919.363,VALID,0,VALID,100,VALID,0.0169808,VALID,19.8513,VALID,129,VALID,0.833519,
2004-02-25, 00:18:00,VALID,919.367,VALID,0,VALID,100,VALID,0,VALID,19.8513,VALID,126,VALID,0.698633,
2004-02-25, 00:19:00,VALID,919.36,VALID,0,VALID,100,VALID,0.0169808,VALID,19.8446,VALID,132,VALID,0.884411,
2004-02-25, 00:20:00,VALID,919.356,VALID,0,VALID,100,VALID,0,VALID,19.8674,VALID,138,VALID,0.852628,
2004-02-25, 00:21:00,VALID,919.353,VALID,0,VALID,100,VALID,0.0339617,VALID,19.8577,VALID,138,VALID,0.858285,
2004-02-25, 00:22:00,VALID,919.359,VALID,0,VALID,100,VALID,0.0169808,VALID,19.8803,VALID,141,VALID,0.999818,
2004-02-25, 00:23:00,VALID,919.369,VALID,0,VALID,100,VALID,0,VALID,19.8995,VALID,139,VALID,0.800164,
2004-02-25, 00:24:00,VALID,919.362,VALID,0,VALID,100,VALID,0,VALID,19.8997,VALID,139,VALID,0.989397,
2004-02-25, 00:25:00,VALID,919.36,VALID,0,VALID,100,VALID,0.0509425,VALID,19.8863,VALID,133,VALID,0.866071,
2004-02-25, 00:26:00,VALID,919.355,VALID,0,VALID,100,VALID,0.0339617,VALID,19.8962,VALID,131,VALID,0.832961,
2004-02-25, 00:27:00,VALID,919.36,VALID,0,VALID,100,VALID,0,VALID,19.9024,VALID,121,VALID,0.865282,
2004-02-25, 00:28:00,VALID,919.36,VALID,0,VALID,100,VALID,0.0169808,VALID,19.8801,VALID,121,VALID,1.05859,
2004-02-25, 00:29:00,VALID,919.359,VALID,0,VALID,100,VALID,0.0339617,VALID,19.9027,VALID,130,VALID,1.37766,
2004-02-25, 00:30:00,VALID,919.351,VALID,0,VALID,100,VALID,0.0169808,VALID,19.9226,VALID,129,VALID,1.52877,
2004-02-25, 00:31:00,VALID,919.345,VALID,0,VALID,100,VALID,0.0169808,VALID,19.9221,VALID,131,VALID,1.12882,
2004-02-25, 00:32:00,VALID,919.318,VALID,0,VALID,100,VALID,0.0339617,VALID,19.8995,VALID,135,VALID,1.24716,
2004-02-25, 00:33:00,VALID,919.298,VALID,0,VALID,100,VALID,0.0679233,VALID,19.9091,VALID,134,VALID,1.38935,
2004-02-25, 00:34:00,VALID,919.29,VALID,0,VALID,100,VALID,0.0169808,VALID,19.8995,VALID,154,VALID,0.808771,
2004-02-25, 00:35:00,VALID,919.281,VALID,0,VALID,100,VALID,0.0339617,VALID,19.9027,VALID,159,VALID,0.535156,
2004-02-25, 00:36:00,VALID,919.285,VALID,0,VALID,100,VALID,0.0679233,VALID,19.9159,VALID,170,VALID,0.745384,
2004-02-25, 00:37:00,VALID,919.277,VALID,0,VALID,100,VALID,0.0169808,VALID,19.9156,VALID,153,VALID,1.1918,
2004-02-25, 00:38:00,VALID,919.264,VALID,0,VALID,100,VALID,0.0509425,VALID,19.9385,VALID,140,VALID,1.39558,
2004-02-25, 00:39:00,VALID,919.266,VALID,0,VALID,100,VALID,0,VALID,19.9317,VALID,113,VALID,1.08244,
2004-02-25, 00:40:00,VALID,919.252,VALID,0,VALID,100,VALID,0.0339617,VALID,19.9283,VALID,139,VALID,1.31432,
2004-02-25, 00:41:00,VALID,919.226,VALID,0,VALID,100,VALID,0.0509425,VALID,19.9347,VALID,134,VALID,1.49182,
2004-02-25, 00:42:00,VALID,919.206,VALID,0,VALID,100,VALID,0.0339617,VALID,19.9218,VALID,123,VALID,1.21424,
2004-02-25, 00:43:00,VALID,919.196,VALID,0,VALID,100,VALID,0.0509425,VALID,19.9024,VALID,133,VALID,1.29415,
2004-02-25, 00:44:00,VALID,919.182,VALID,0,VALID,100,VALID,0.0169808,VALID,19.9027,VALID,132,VALID,1.30711,
2004-02-25, 00:45:00,VALID,919.178,VALID,0,VALID,100,VALID,-0.0679233,VALID,19.8972,VALID,129,VALID,1.80153,
2004-02-25, 00:46:00,VALID,919.145,VALID,0,VALID,100,VALID,-0.0339617,VALID,19.9136,VALID,132,VALID,1.37609,
2004-02-25, 00:47:00,VALID,919.112,VALID,0,VALID,100,VALID,-0.101885,VALID,19.9236,VALID,137,VALID,1.92188,
2004-02-25, 00:48:00,VALID,919.095,VALID,0,VALID,100,VALID,-0.0679233,VALID,19.9427,VALID,136,VALID,1.82584,
2004-02-25, 00:49:00,VALID,919.065,VALID,0,VALID,100,VALID,-0.0339617,VALID,19.9462,VALID,142,VALID,1.41457,
2004-02-25, 00:50:00,VALID,919.02,VALID,0,VALID,100,VALID,-0.0849042,VALID,19.9591,VALID,125,VALID,1.68698,
2004-02-25, 00:51:00,VALID,918.988,VALID,0,VALID,100,VALID,-0.0509425,VALID,19.936,VALID,135,VALID,1.43248,
2004-02-25, 00:52:00,VALID,918.949,VALID,0,VALID,100,VALID,-0.0679233,VALID,19.9265,VALID,119,VALID,1.57496,
2004-02-25, 00:53:00,VALID,918.923,VALID,0,VALID,100,VALID,-0.0509425,VALID,19.9169,VALID,115,VALID,1.56759,
2004-02-25, 00:54:00,VALID,918.911,VALID,0,VALID,100,VALID,-0.0509425,VALID,19.9072,VALID,114,VALID,1.16831,
2004-02-25, 00:55:00,VALID,918.905,VALID,0,VALID,100,VALID,-0.0339617,VALID,19.9104,VALID,118,VALID,1.38393,
2004-02-25, 00:56:00,VALID,918.898,VALID,0,VALID,100,VALID,-0.0509425,VALID,19.9074,VALID,119,VALID,1.12666,
2004-02-25, 00:57:00,VALID,918.899,VALID,0,VALID,100,VALID,-0.0509425,VALID,19.8975,VALID,139,VALID,1.15937,
2004-02-25, 00:58:00,VALID,918.896,VALID,0,VALID,100,VALID,-0.0679233,VALID,19.8813,VALID,123,VALID,0.73952,
2004-02-25, 00:59:00,VALID,918.883,VALID,0,VALID,100,VALID,-0.0509425,VALID,19.8714,VALID,109,VALID,1.08464,
2004-02-25, 01:00:00,VALID,918.865,VALID,0,VALID,100,VALID,0.0169808,VALID,19.8734,VALID,126,VALID,0.665251,
2004-02-25, 01:01:00,VALID,918.853,VALID,0,VALID,100,VALID,0,VALID,19.86,VALID,117,VALID,0.978924,
2004-02-25, 01:02:00,VALID,918.827,VALID,0,VALID,100,VALID,0.0169808,VALID,19.8473,VALID,57,VALID,0.466372,
2004-02-25, 01:03:00,VALID,918.8,VALID,0,VALID,100,VALID,0.0339617,VALID,19.8346,VALID,58,VALID,0.474609,
2004-02-25, 01:04:00,VALID,918.763,VALID,0,VALID,100,VALID,0.0339617,VALID,19.8344,VALID,86,VALID,0.764353,
2004-02-25, 01:05:00,VALID,918.748,VALID,0,VALID,100,VALID,0.0339617,VALID,19.8242,VALID,51,VALID,0.423549,
2004-02-25, 01:06:00,VALID,918.736,VALID,0,VALID,100,VALID,0.0169808,VALID,19.8376,VALID,47,VALID,0.669071,
2004-02-25, 01:07:00,VALID,918.727,VALID,0,VALID,100,VALID,0.0169808,VALID,19.8346,VALID,51,VALID,0.780185,
2004-02-25, 01:08:00,VALID,918.719,VALID,0,VALID,100,VALID,0.0169808,VALID,19.8083,VALID,44,VALID,0.614383,
2004-02-25, 01:09:00,VALID,918.728,VALID,0,VALID,100,VALID,0.0169808,VALID,19.8152,VALID,48,VALID,1.05664,
2004-02-25, 01:10:00,VALID,918.717,VALID,0,VALID,100,VALID,0.0169808,VALID,19.8252,VALID,41,VALID,0.879972,
2004-02-25, 01:11:00,VALID,918.709,VALID,0,VALID,100,VALID,-0.0169808,VALID,19.8187,VALID,52,VALID,0.698438,
2004-02-25, 01:12:00,VALID,918.716,VALID,0,VALID,100,VALID,0.0169808,VALID,19.8185,VALID,59,VALID,0.514382,
2004-02-25, 01:13:00,VALID,918.711,VALID,0,VALID,100,VALID,0,VALID,19.8053,VALID,67,VALID,0.527439,
2004-02-25, 01:14:00,VALID,918.711,VALID,0,VALID,100,VALID,0,VALID,19.7991,VALID,96,VALID,0.756882,
2004-02-25, 01:15:00,VALID,918.707,VALID,0,VALID,100,VALID,-0.101885,VALID,19.8008,VALID,91,VALID,0.751065,
2004-02-25, 01:16:00,VALID,918.711,VALID,0,VALID,100,VALID,-0.0679233,VALID,19.8006,VALID,79,VALID,0.953303,
2004-02-25, 01:17:00,VALID,918.709,VALID,0,VALID,100,VALID,-0.0679233,VALID,19.7877,VALID,93,VALID,0.899796,
2004-02-25, 01:18:00,VALID,918.712,VALID,0,VALID,100,VALID,-0.101885,VALID,19.7812,VALID,92,VALID,0.873047,
2004-02-25, 01:19:00,VALID,918.702,VALID,0,VALID,100,VALID,-0.0849042,VALID,19.7643,VALID,77,VALID,0.676711,
2004-02-25, 01:20:00,VALID,918.695,VALID,0,VALID,100,VALID,-0.101885,VALID,19.7618,VALID,79,VALID,0.841844,
2004-02-25, 01:21:00,VALID,918.708,VALID,0,VALID,100,VALID,-0.101885,VALID,19.7591,VALID,64,VALID,0.795201,
2004-02-25, 01:22:00,VALID,918.703,VALID,0,VALID,100,VALID,-0.101885,VALID,19.7392,VALID,74,VALID,0.524325,
2004-02-25, 01:23:00,VALID,918.715,VALID,0,VALID,100,VALID,-0.101885,VALID,19.7363,VALID,63,VALID,0.770275,
2004-02-25, 01:24:00,VALID,918.711,VALID,0,VALID,100,VALID,-0.0509425,VALID,19.7427,VALID,62,VALID,0.836319,
2004-02-25, 01:25:00,VALID,918.732,VALID,0,VALID,100,VALID,-0.101885,VALID,19.7363,VALID,54,VALID,0.758507,
2004-02-25, 01:26:00,VALID,918.744,VALID,0,VALID,100,VALID,-0.101885,VALID,19.7166,VALID,30,VALID,0.983487,
2004-02-25, 01:27:00,VALID,918.78,VALID,0,VALID,100,VALID,-0.0679233,VALID,19.7104,VALID,23,VALID,1.10742,
2004-02-25, 01:28:00,VALID,918.816,VALID,0,VALID,100,VALID,-0.101885,VALID,19.7072,VALID,22,VALID,0.986471,
2004-02-25, 01:29:00,VALID,918.838,VALID,0,VALID,100,VALID,-0.0679233,VALID,19.6841,VALID,32,VALID,0.898438,
2004-02-25, 01:30:00,VALID,918.871,VALID,0,VALID,100,VALID,0,VALID,19.6737,VALID,36,VALID,1.03906,
2004-02-25, 01:31:00,VALID,918.895,VALID,0,VALID,100,VALID,0.0169808,VALID,19.6669,VALID,38,VALID,0.910974,
2004-02-25, 01:32:00,VALID,918.909,VALID,0,VALID,100,VALID,0.0169808,VALID,19.6471,VALID,28,VALID,0.754687,
2004-02-25, 01:33:00,VALID,918.903,VALID,0,VALID,100,VALID,0.0169808,VALID,19.6473,VALID,32,VALID,0.786111,
2004-02-25, 01:34:00,VALID,918.893,VALID,0,VALID,100,VALID,0.0339617,VALID,19.6409,VALID,28,VALID,0.856399,
2004-02-25, 01:35:00,VALID,918.871,VALID,0,VALID,100,VALID,0.0169808,VALID,19.6506,VALID,31,VALID,0.920573,
2004-02-25, 01:36:00,VALID,918.862,VALID,0,VALID,100,VALID,0,VALID,19.6545,VALID,36,VALID,0.617551,
2004-02-25, 01:37:00,VALID,918.843,VALID,0,VALID,100,VALID,0.0509425,VALID,19.6538,VALID,47,VALID,0.65298,
2004-02-25, 01:38:00,VALID,918.834,VALID,0,VALID,100,VALID,0.0339617,VALID,19.66,VALID,41,VALID,0.650112,
2004-02-25, 01:39:00,VALID,918.807,VALID,0,VALID,100,VALID,0,VALID,19.6605,VALID,15,VALID,0.887277,
2004-02-25, 01:40:00,VALID,918.798,VALID,0,VALID,100,VALID,0.0339617,VALID,19.6575,VALID,8,VALID,1.24368,
2004-02-25, 01:41:00,VALID,918.777,VALID,0,VALID,100,VALID,0,VALID,19.6635,VALID,359,VALID,1.04535,
2004-02-25, 01:42:00,VALID,918.778,VALID,0,VALID,100,VALID,0.0169808,VALID,19.6799,VALID,354,VALID,1.01753,
2004-02-25, 01:43:00,VALID,918.777,VALID,0,VALID,100,VALID,0,VALID,19.6898,VALID,353,VALID,0.65811,
2004-02-25, 01:44:00,VALID,918.794,VALID,0,VALID,100,VALID,0.0339617,VALID,19.6863,VALID,341,VALID,0.36044,
2004-02-25, 01:45:00,VALID,918.811,VALID,0,VALID,100,VALID,0.0339617,VALID,19.6893,VALID,334,VALID,0.578506,
2004-02-25, 01:46:00,VALID,918.833,VALID,0,VALID,100,VALID,0.0509425,VALID,19.7094,VALID,328,VALID,0.258903,
2004-02-25, 01:47:00,VALID,918.85,VALID,0,VALID,100,VALID,0.0169808,VALID,19.6888,VALID,317,VALID,0.274962,
2004-02-25, 01:48:00,VALID,918.849,VALID,0,VALID,100,VALID,0.0509425,VALID,19.7092,VALID,316,VALID,0.0359738,
2004-02-25, 01:49:00,VALID,918.839,VALID,0,VALID,100,VALID,0.0509425,VALID,19.7052,VALID,316,VALID,0.0484375,
2004-02-25, 01:50:00,VALID,918.826,VALID,0,VALID,100,VALID,0.0509425,VALID,19.7117,VALID,324,VALID,0.270486,
2004-02-25, 01:51:00,VALID,918.796,VALID,0,VALID,100,VALID,0.0679233,VALID,19.7477,VALID,10,VALID,0.697621,
2004-02-25, 01:52:00,VALID,918.77,VALID,0,VALID,100,VALID,0.0679233,VALID,19.7474,VALID,11,VALID,0.701389,
2004-02-25, 01:53:00,VALID,918.761,VALID,0,VALID,100,VALID,0.0339617,VALID,19.741,VALID,15,VALID,0.78995,
2004-02-25, 01:54:00,VALID,918.749,VALID,0,VALID,100,VALID,0.0509425,VALID,19.7313,VALID,13,VALID,0.743253,
2004-02-25, 01:55:00,VALID,918.763,VALID,0,VALID,100,VALID,0.0169808,VALID,19.7248,VALID,13,VALID,0.799733,
2004-02-25, 01:56:00,VALID,918.772,VALID,0,VALID,100,VALID,0.0509425,VALID,19.7315,VALID,8,VALID,0.781631,
2004-02-25, 01:57:00,VALID,918.78,VALID,0,VALID,100,VALID,0.0509425,VALID,19.7246,VALID,356,VALID,0.158249,
2004-02-25, 01:58:00,VALID,918.798,VALID,0,VALID,100,VALID,0.0169808,VALID,19.7218,VALID,261,VALID,0.346418,
2004-02-25, 01:59:00,VALID,918.805,VALID,0,VALID,100,VALID,0.0169808,VALID,19.7315,VALID,261,VALID,0.183685,
2004-02-25, 02:00:00,VALID,918.821,VALID,0,VALID,100,VALID,0,VALID,19.7221,VALID,261,VALID,0.288881,
2004-02-25, 02:01:00,VALID,918.823,VALID,0,VALID,100,VALID,0,VALID,19.7022,VALID,261,VALID,0.115039,
2004-02-25, 02:02:00,VALID,918.817,VALID,0,VALID,100,VALID,-0.0169808,VALID,19.7156,VALID,261,VALID,0.00868056,
2004-02-25, 02:03:00,VALID,918.81,VALID,0,VALID,100,VALID,0,VALID,19.7348,VALID,273,VALID,0.335938,
2004-02-25, 02:04:00,VALID,918.794,VALID,0,VALID,100,VALID,-0.0169808,VALID,19.7248,VALID,275,VALID,0.2996,
2004-02-25, 02:05:00,VALID,918.781,VALID,0,VALID,100,VALID,0,VALID,19.7154,VALID,276,VALID,0.244368,
2004-02-25, 02:06:00,VALID,918.756,VALID,0,VALID,100,VALID,-0.0339617,VALID,19.7415,VALID,360,VALID,0.572545,
2004-02-25, 02:07:00,VALID,918.752,VALID,0,VALID,100,VALID,-0.0169808,VALID,19.7477,VALID,5,VALID,0.554688,
2004-02-25, 02:08:00,VALID,918.732,VALID,0,VALID,100,VALID,-0.0169808,VALID,19.7382,VALID,291,VALID,0.412348,
2004-02-25, 02:09:00,VALID,918.714,VALID,0,VALID,100,VALID,-0.0169808,VALID,19.7315,VALID,284,VALID,0.286458,
2004-02-25, 02:10:00,VALID,918.699,VALID,0,VALID,100,VALID,-0.0169808,VALID,19.7444,VALID,284,VALID,0.103016,
2004-02-25, 02:11:00,VALID,918.684,VALID,0,VALID,100,VALID,-0.0169808,VALID,19.7512,VALID,284,VALID,0,
2004-02-25, 02:12:00,VALID,918.683,VALID,0,VALID,100,VALID,0,VALID,19.7412,VALID,296,VALID,0.119992,
2004-02-25, 02:13:00,VALID,918.685,VALID,0,VALID,100,VALID,0,VALID,19.7479,VALID,318,VALID,0.217969,
2004-02-25, 02:14:00,VALID,918.693,VALID,0,VALID,100,VALID,0.0169808,VALID,19.735,VALID,318,VALID,0.0401786,
2004-02-25, 02:15:00,VALID,918.701,VALID,0,VALID,100,VALID,-0.0339617,VALID,19.7417,VALID,318,VALID,0,
2004-02-25, 02:16:00,VALID,918.722,VALID,0,VALID,100,VALID,0,VALID,19.7474,VALID,318,VALID,0.0594512,
2004-02-25, 02:17:00,VALID,918.731,VALID,0,VALID,100,VALID,0,VALID,19.7676,VALID,318,VALID,0.159375,
2004-02-25, 02:18:00,VALID,918.746,VALID,0,VALID,100,VALID,0.0169808,VALID,19.7708,VALID,318,VALID,0.166969,
2004-02-25, 02:19:00,VALID,918.746,VALID,0,VALID,100,VALID,0,VALID,19.7539,VALID,329,VALID,0.380451,
2004-02-25, 02:20:00,VALID,918.753,VALID,0,VALID,100,VALID,0,VALID,19.7606,VALID,341,VALID,0.354992,
2004-02-25, 02:21:00,VALID,918.756,VALID,0,VALID,100,VALID,-0.0339617,VALID,19.7603,VALID,340,VALID,0.470424,
2004-02-25, 02:22:00,VALID,918.754,VALID,0,VALID,100,VALID,-0.0169808,VALID,19.7444,VALID,321,VALID,0.526972,
2004-02-25, 02:23:00,VALID,918.768,VALID,0,VALID,100,VALID,-0.0169808,VALID,19.738,VALID,321,VALID,0.326215,
2004-02-25, 02:24:00,VALID,918.77,VALID,0,VALID,100,VALID,0.0169808,VALID,19.732,VALID,321,VALID,0.13681,
2004-02-25, 02:25:00,VALID,918.766,VALID,0,VALID,100,VALID,0.0169808,VALID,19.7248,VALID,321,VALID,0.0512355,
2004-02-25, 02:26:00,VALID,918.752,VALID,0,VALID,100,VALID,0.0169808,VALID,19.7512,VALID,322,VALID,0.00190549,
2004-02-25, 02:27:00,VALID,918.744,VALID,0,VALID,100,VALID,-0.0169808,VALID,19.7608,VALID,322,VALID,0.204723,
2004-02-25, 02:28:00,VALID,918.723,VALID,0,VALID,100,VALID,0,VALID,19.7442,VALID,335,VALID,0.338956,
2004-02-25, 02:29:00,VALID,918.712,VALID,0,VALID,100,VALID,0,VALID,19.7641,VALID,6,VALID,0.653409,
2004-02-25, 02:30:00,VALID,918.698,VALID,0,VALID,100,VALID,0,VALID,19.7673,VALID,15,VALID,0.732422,
2004-02-25, 02:31:00,VALID,918.69,VALID,0,VALID,100,VALID,-0.0169808,VALID,19.7514,VALID,15,VALID,0.854968,
2004-02-25, 02:32:00,VALID,918.713,VALID,0,VALID,100,VALID,-0.0339617,VALID,19.7549,VALID,1,VALID,0.425145,
2004-02-25, 02:33:00,VALID,918.723,VALID,0,VALID,100,VALID,0,VALID,19.7382,VALID,311,VALID,0.48056,
2004-02-25, 02:34:00,VALID,918.733,VALID,0,VALID,100,VALID,-0.0169808,VALID,19.7415,VALID,309,VALID,0.0511364,
2004-02-25, 02:35:00,VALID,918.739,VALID,0,VALID,100,VALID,-0.0509425,VALID,19.7415,VALID,309,VALID,0,
2004-02-25, 02:36:00,VALID,918.744,VALID,0,VALID,100,VALID,0,VALID,19.7643,VALID,309,VALID,0.138529,
2004-02-25, 02:37:00,VALID,918.763,VALID,0,VALID,100,VALID,-0.0169808,VALID,19.7708,VALID,1,VALID,0.402043,
2004-02-25, 02:38:00,VALID,918.757,VALID,0,VALID,100,VALID,0,VALID,19.7869,VALID,28,VALID,0.290264,
2004-02-25, 02:39:00,VALID,918.756,VALID,0,VALID,100,VALID,-0.0169808,VALID,19.7904,VALID,21,VALID,0.273438,
2004-02-25, 02:40:00,VALID,918.747,VALID,0,VALID,100,VALID,-0.0169808,VALID,19.7834,VALID,14,VALID,0.277798,
2004-02-25, 02:41:00,VALID,918.72,VALID,0,VALID,100,VALID,-0.0339617,VALID,19.7902,VALID,14,VALID,0.318892,
2004-02-25, 02:42:00,VALID,918.704,VALID,0,VALID,100,VALID,-0.0339617,VALID,19.8071,VALID,9,VALID,0.483422,
2004-02-25, 02:43:00,VALID,918.691,VALID,0,VALID,100,VALID,-0.0339617,VALID,19.8068,VALID,7,VALID,0.667151,
2004-02-25, 02:44:00,VALID,918.67,VALID,0,VALID,100,VALID,-0.0169808,VALID,19.7897,VALID,7,VALID,0.794618,
2004-02-25, 02:45:00,VALID,918.664,VALID,0,VALID,100,VALID,-0.0169808,VALID,19.774,VALID,22,VALID,1.02134,
2004-02-25, 02:46:00,VALID,918.65,VALID,0,VALID,100,VALID,-0.0169808,VALID,19.7668,VALID,34,VALID,0.891868,
2004-02-25, 02:47:00,VALID,918.646,VALID,0,VALID,100,VALID,-0.0339617,VALID,19.7671,VALID,22,VALID,1.01916,
2004-02-25, 02:48:00,VALID,918.637,VALID,0,VALID,100,VALID,0,VALID,19.7512,VALID,26,VALID,0.84517,
2004-02-25, 02:49:00,VALID,918.601,VALID,0,VALID,100,VALID,-0.0339617,VALID,19.7512,VALID,39,VALID,0.945858,
2004-02-25, 02:50:00,VALID,918.569,VALID,0,VALID,100,VALID,-0.0509425,VALID,19.7318,VALID,39,VALID,0.942708,
2004-02-25, 02:51:00,VALID,918.559,VALID,0,VALID,100,VALID,-0.0169808,VALID,19.7223,VALID,33,VALID,1.08498,
2004-02-25, 02:52:00,VALID,918.533,VALID,0,VALID,100,VALID,0,VALID,19.7258,VALID,29,VALID,0.964844,
2004-02-25, 02:53:00,VALID,918.519,VALID,0,VALID,100,VALID,-0.0339617,VALID,19.7223,VALID,39,VALID,1.00533,
2004-02-25, 02:54:00,VALID,918.498,VALID,0,VALID,100,VALID,-0.0339617,VALID,19.7355,VALID,33,VALID,0.903706,
2004-02-25, 02:55:00,VALID,918.475,VALID,0,VALID,100,VALID,-0.0169808,VALID,19.7454,VALID,34,VALID,0.795099,
2004-02-25, 02:56:00,VALID,918.481,VALID,0,VALID,100,VALID,-0.0169808,VALID,19.7519,VALID,36,VALID,0.693359,
2004-02-25, 02:57:00,VALID,918.468,VALID,0,VALID,100,VALID,-0.0509425,VALID,19.7517,VALID,38,VALID,0.477471,
2004-02-25, 02:58:00,VALID,918.464,VALID,0,VALID,100,VALID,-0.0169808,VALID,19.7484,VALID,38,VALID,0.438689,
2004-02-25, 02:59:00,VALID,918.459,VALID,0,VALID,100,VALID,-0.0169808,VALID,19.7417,VALID,38,VALID,0.452446,
2004-02-25, 03:00:00,VALID,918.443,VALID,0,VALID,100,VALID,0,VALID,19.7353,VALID,52,VALID,0.582209,
2004-02-25, 03:01:00,VALID,918.451,VALID,0,VALID,100,VALID,0.0169808,VALID,19.732,VALID,102,VALID,0.80878,
2004-02-25, 03:02:00,VALID,918.424,VALID,0,VALID,100,VALID,0.0169808,VALID,19.7509,VALID,128,VALID,0.813368,
2004-02-25, 03:03:00,VALID,918.407,VALID,0,VALID,100,VALID,0.0169808,VALID,19.7606,VALID,126,VALID,0.854469,
2004-02-25, 03:04:00,VALID,918.394,VALID,0,VALID,100,VALID,0,VALID,19.7536,VALID,107,VALID,0.59654,
2004-02-25, 03:05:00,VALID,918.385,VALID,0,VALID,100,VALID,0,VALID,19.7474,VALID,101,VALID,0.757813,
2004-02-25, 03:06:00,VALID,918.357,VALID,0,VALID,100,VALID,0,VALID,19.7449,VALID,118,VALID,0.748666,
2004-02-25, 03:07:00,VALID,918.339,VALID,0,VALID,100,VALID,0.0169808,VALID,19.7313,VALID,128,VALID,0.67016,
2004-02-25, 03:08:00,VALID,918.307,VALID,0,VALID,100,VALID,0,VALID,19.738,VALID,124,VALID,0.872337,
2004-02-25, 03:09:00,VALID,918.29,VALID,0,VALID,100,VALID,0.0339617,VALID,19.7377,VALID,127,VALID,0.842685,
2004-02-25, 03:10:00,VALID,918.269,VALID,0,VALID,100,VALID,0,VALID,19.7415,VALID,126,VALID,1.07298,
2004-02-25, 03:11:00,VALID,918.227,VALID,0,VALID,100,VALID,-0.0169808,VALID,19.738,VALID,128,VALID,1.16424,
2004-02-25, 03:12:00,VALID,918.202,VALID,0,VALID,100,VALID,0,VALID,19.7353,VALID,131,VALID,1.12424,
2004-02-25, 03:13:00,VALID,918.179,VALID,0,VALID,100,VALID,0,VALID,19.7318,VALID,128,VALID,1.14249,
2004-02-25, 03:14:00,VALID,918.157,VALID,0,VALID,100,VALID,0.0339617,VALID,19.7218,VALID,125,VALID,1.12035,
2004-02-25, 03:15:00,VALID,918.12,VALID,0,VALID,100,VALID,0.0169808,VALID,19.7186,VALID,121,VALID,0.904297,
2004-02-25, 03:16:00,VALID,918.091,VALID,0,VALID,100,VALID,0,VALID,19.7191,VALID,119,VALID,0.926235,
2004-02-25, 03:17:00,VALID,918.065,VALID,0,VALID,100,VALID,0,VALID,19.7092,VALID,113,VALID,0.758721,
2004-02-25, 03:18:00,VALID,918.052,VALID,0,VALID,100,VALID,0,VALID,19.7087,VALID,110,VALID,0.557594,
2004-02-25, 03:19:00,VALID,918.011,VALID,0,VALID,100,VALID,0,VALID,19.7092,VALID,96,VALID,0.238948,
2004-02-25, 03:20:00,VALID,917.982,VALID,0,VALID,100,VALID,0,VALID,19.7087,VALID,91,VALID,0.0839844,
2004-02-25, 03:21:00,VALID,917.955,VALID,0,VALID,100,VALID,0.0169808,VALID,19.7022,VALID,91,VALID,0.422619,
2004-02-25, 03:22:00,VALID,917.924,VALID,0,VALID,100,VALID,0.0339617,VALID,19.6928,VALID,102,VALID,0.756944,
2004-02-25, 03:23:00,VALID,917.899,VALID,0,VALID,100,VALID,0,VALID,19.6995,VALID,122,VALID,1.21948,
2004-02-25, 03:24:00,VALID,917.876,VALID,0,VALID,100,VALID,0.0339617,VALID,19.6995,VALID,127,VALID,1.31777,
2004-02-25, 03:25:00,VALID,917.863,VALID,0,VALID,100,VALID,0.0169808,VALID,19.6928,VALID,132,VALID,1.47227,
2004-02-25, 03:26:00,VALID,917.836,VALID,0,VALID,100,VALID,0,VALID,19.6806,VALID,136,VALID,1.54342,
2004-02-25, 03:27:00,VALID,917.827,VALID,0,VALID,100,VALID,0.0169808,VALID,19.6543,VALID,127,VALID,1.6976,
2004-02-25, 03:28:00,VALID,917.815,VALID,0,VALID,100,VALID,0,VALID,19.6384,VALID,129,VALID,1.12649,
2004-02-25, 03:29:00,VALID,917.8,VALID,0,VALID,100,VALID,0,VALID,19.6255,VALID,130,VALID,1.50636,
2004-02-25, 03:30:00,VALID,917.793,VALID,0,VALID,100,VALID,0.0169808,VALID,19.6088,VALID,124,VALID,1.29724,
2004-02-25, 03:31:00,VALID,917.771,VALID,0,VALID,100,VALID,0,VALID,19.5897,VALID,119,VALID,1.28906,
2004-02-25, 03:32:00,VALID,917.761,VALID,0,VALID,100,VALID,0,VALID,19.5698,VALID,132,VALID,1.2391,
2004-02-25, 03:33:00,VALID,917.74,VALID,0,VALID,100,VALID,0.0339617,VALID,19.5701,VALID,126,VALID,1.33775,
2004-02-25, 03:34:00,VALID,917.736,VALID,0,VALID,100,VALID,0.0169808,VALID,19.5639,VALID,126,VALID,1.49966,
2004-02-25, 03:35:00,VALID,917.727,VALID,0,VALID,100,VALID,0.0169808,VALID,19.5736,VALID,133,VALID,1.21987,
2004-02-25, 03:36:00,VALID,917.7,VALID,0,VALID,100,VALID,0.0339617,VALID,19.5601,VALID,132,VALID,1.45076,
2004-02-25, 03:37:00,VALID,917.689,VALID,0,VALID,100,VALID,0.0679233,VALID,19.5472,VALID,123,VALID,1.26526,
2004-02-25, 03:38:00,VALID,917.668,VALID,0,VALID,100,VALID,0.0169808,VALID,19.5477,VALID,120,VALID,1.3418,
2004-02-25, 03:39:00,VALID,917.655,VALID,0,VALID,100,VALID,0,VALID,19.5447,VALID,111,VALID,1.27598,
2004-02-25, 03:40:00,VALID,917.643,VALID,0,VALID,100,VALID,0.0169808,VALID,19.5254,VALID,92,VALID,0.767154,
2004-02-25, 03:41:00,VALID,917.627,VALID,0,VALID,100,VALID,0.0339617,VALID,19.509,VALID,105,VALID,0.934451,
2004-02-25, 03:42:00,VALID,917.613,VALID,0,VALID,100,VALID,0,VALID,19.5187,VALID,124,VALID,1.2327,
2004-02-25, 03:43:00,VALID,917.604,VALID,0,VALID,100,VALID,-0.0169808,VALID,19.5224,VALID,118,VALID,1.17401,